Weather History for Northeast Philadelphia, PA

Change the Weather History Date:

Saturday, February 22, 2014

  Actual Average Record
Temperature  
Mean Temperature 42 °F -  
Max Temperature 55 °F 43 °F 66 °F (1997)
Min Temperature 30 °F 27 °F 15 °F (1999)
Degree Days  
Heating Degree Days 22    
Moisture  
Dew Point 29 °F    
Average Humidity 75    
Maximum Humidity 96    
Minimum Humidity 24    
Precipitation  
Precipitation 0.00 in - - ()
Sea Level Pressure  
Sea Level Pressure 30.02 in    
Wind  
Wind Speed 3 mph (SW)    
Max Wind Speed 23 mph    
Max Gust Speed 31 mph    
Visibility 5 miles    
Events Fog    
Averages and records for this station are not official NWS values.
T = Trace of Precipitation, MM = Missing Value Source: NWS Daily Summary

Daily Weather History Graph

Daily Weather History Graph

Search for Another Location

Airport:

Trip Planner

Search our weather history database for the weather conditions in past years. The results will help you decide how hot, cold, wet, or windy it might be!

Date:

Astronomy

Feb. 22, 2014 Rise Set
Actual Time 6:43 AM EST 5:43 PM EST
Civil Twilight 6:16 AM EST 6:11 PM EST
Nautical Twilight 5:44 AM EST 6:42 PM EST
Astronomical Twilight 5:13 AM EST 7:14 PM EST
Moon 12:36 AM EST (2/22) 10:52 AM EST (2/22)
Length of Visible Light 11h 55m
Length of Day
11h 00m
Waning Gibbous, 50% of the Moon is Illuminated
Feb 22
Waning Gibbous
Feb 22
Last Quarter
Mar 1
New
Mar 8
First Quarter
Mar 16
Full

Hourly Weather History & Observations

Time (EST) Temp. Windchill Dew Point Humidity Pressure Visibility Wind Dir Wind Speed Gust Speed Precip Events Conditions
12:51 AM 35.6 °F 32.8 °F 33.8 °F 93% 29.97 in 1.8 mi WSW 3.5 mph - N/A   Clear
12:54 AM 36.0 °F 33.3 °F 34.0 °F 93% 29.97 in 1.8 mi WSW 3.5 mph - N/A   Clear
1:02 AM 34.0 °F - 33.1 °F 96% 29.97 in 0.8 mi Calm Calm - N/A   Mist
1:12 AM 35.1 °F 32.2 °F 33.1 °F 92% 29.98 in 2.0 mi WSW 3.5 mph - N/A   Partly Cloudy
1:20 AM 36.0 °F - 33.1 °F 89% 29.98 in 3.0 mi Calm Calm - N/A   Clear
1:25 AM 34.0 °F - 32.0 °F 92% 29.98 in 1.2 mi Calm Calm - N/A   Partly Cloudy
1:27 AM 33.1 °F - 32.0 °F 96% 29.98 in 0.8 mi Calm Calm - N/A   Mist
1:37 AM 33.1 °F - 32.0 °F 96% 29.99 in 0.8 mi Calm Calm - N/A   Clear
1:40 AM 33.1 °F - 30.9 °F 92% 29.99 in 2.0 mi Calm Calm - N/A   Clear
1:54 AM 33.1 °F - 32.0 °F 96% 29.99 in 2.5 mi Calm Calm - N/A   Clear
1:59 AM 30.0 °F - 28.9 °F 96% 29.99 in 0.8 mi Calm Calm - N/A   Clear
2:06 AM 30.9 °F - 28.9 °F 92% 29.99 in 0.2 mi Calm Calm - N/A Fog Light Freezing Fog
2:19 AM 35.1 °F 32.2 °F 34.0 °F 96% 29.99 in 1.5 mi West 3.5 mph - N/A   Partly Cloudy
2:21 AM 35.1 °F 32.2 °F 34.0 °F 96% 29.98 in 3.0 mi West 3.5 mph - N/A   Partly Cloudy
2:35 AM 34.0 °F 31.0 °F 32.0 °F 92% 29.99 in 1.8 mi West 3.5 mph - N/A   Clear
2:54 AM 30.9 °F 27.5 °F 28.0 °F 89% 30.00 in 2.5 mi South 3.5 mph - N/A   Clear
3:06 AM 32.0 °F - 30.0 °F 92% 30.00 in 3.0 mi Calm Calm - N/A   Clear
3:10 AM 30.9 °F - 28.9 °F 92% 30.00 in 1.5 mi Calm Calm - N/A   Clear
3:23 AM 30.9 °F - 28.0 °F 89% 30.00 in 0.5 mi Calm Calm - N/A Fog Light Freezing Fog
3:37 AM 30.9 °F - 30.0 °F 96% 30.01 in 0.2 mi Calm Calm - N/A Fog Light Freezing Fog
3:47 AM 33.1 °F - 32.0 °F 96% 30.01 in 0.8 mi Calm Calm - N/A   Clear
3:54 AM 34.0 °F - 32.0 °F 92% 30.02 in 1.0 mi Calm Calm - N/A   Mist
4:01 AM 33.1 °F - 30.9 °F 92% 30.02 in 0.5 mi Calm Calm - N/A Fog Fog
4:44 AM 34.0 °F 31.0 °F 30.9 °F 89% 30.05 in 1.2 mi WSW 3.5 mph - N/A   Partly Cloudy
4:54 AM 33.1 °F 28.7 °F 30.9 °F 92% 30.05 in 5.0 mi WSW 4.6 mph - N/A   Clear
5:54 AM 32.0 °F 27.5 °F 28.9 °F 88% 30.07 in 8.0 mi West 4.6 mph - N/A   Clear
6:54 AM 30.9 °F - 28.9 °F 92% 30.08 in 6.0 mi Calm Calm - N/A   Clear
7:54 AM 34.0 °F 31.0 °F 32.0 °F 92% 30.10 in 7.0 mi SW 3.5 mph - N/A   Clear
8:54 AM 35.1 °F 32.2 °F 32.0 °F 89% 30.10 in 9.0 mi SW 3.5 mph - N/A   Clear
9:54 AM 45.0 °F 41.8 °F 33.1 °F 63% 30.10 in 10.0 mi SSW 5.8 mph - N/A   Clear
10:54 AM 48.9 °F - 28.0 °F 44% 30.09 in 10.0 mi SW 10.4 mph - N/A   Clear
11:54 AM 51.1 °F - 24.1 °F 35% 30.07 in 10.0 mi SW 10.4 mph 18.4 mph N/A   Clear
12:54 PM 53.1 °F - 23.0 °F 31% 30.05 in 10.0 mi SW 12.7 mph 24.2 mph N/A   Clear
1:54 PM 55.9 °F - 21.0 °F 26% 30.02 in 10.0 mi SW 15.0 mph 26.5 mph N/A   Clear
2:54 PM 55.9 °F - 19.0 °F 24% 30.02 in 10.0 mi West 23.0 mph 31.1 mph N/A   Clear
3:54 PM 55.9 °F - 19.9 °F 25% 30.01 in 10.0 mi WSW 17.3 mph 29.9 mph N/A   Clear
4:54 PM 55.0 °F - 21.0 °F 27% 30.02 in 10.0 mi WSW 17.3 mph 24.2 mph N/A   Clear
5:54 PM 54.0 °F - 24.1 °F 31% 30.03 in 10.0 mi SW 6.9 mph - N/A   Clear
6:54 PM 52.0 °F - 26.1 °F 37% 30.04 in 10.0 mi SW 5.8 mph - N/A   Clear
7:54 PM 51.1 °F - 28.0 °F 41% 30.05 in 10.0 mi SW 6.9 mph - N/A   Clear
8:54 PM 50.0 °F - 30.0 °F 46% 30.05 in 10.0 mi SW 8.1 mph - N/A   Clear
9:54 PM 46.9 °F - 30.0 °F 52% 30.06 in 10.0 mi SSW 5.8 mph - N/A   Clear
10:54 PM 46.9 °F - 30.0 °F 52% 30.05 in 10.0 mi SW 6.9 mph - N/A   Clear
11:54 PM 44.1 °F 41.5 °F 30.0 °F 58% 30.04 in 10.0 mi SW 4.6 mph - N/A   Clear